Погода в Поронайске

Погода в Поронайске : погода сейчас, прогноз погоды и архив. Всё, что Вы хотите узнать о погоде в Поронайске!

Хотите узнать прогноз погоды в Поронайске? Тогда Вам сюда: Погода в Поронайске

Поиск расширенной информации на нашем сайте:

Другие новости

Новости СМИ2

Главная страница сайта

Новости сайта

03.07.2017

Напоминаем, что на нашем специализированном сайте Метеоцентр.Азия вы можете получить высокодетализированные автоматические прогнозы погоды по пунктам России, СНГ и мира в авиационном формате (включающие направление и скорость ветра, видимость, явления погоды, количество и форму облачности, нижнюю и верхнюю границу облачности).

Рекомендуем: Самая подробная информация услуги аренды персонала на сайте.

Погода в Поронайске - сегодня

Время (UTC), дата Ветер
(°,м/с) 
Видим.   Явления Облачность Т
(°С)
Тd
(°С)
f(%) Тe
(°С)
Pmin
(гПа)
dP
(гПа)
Po
(мм)
O2
(г/м3)
Тmin Tmax R s Состояние
почвы
00 17.10.17 260 (З) 3-5{05}  20000 м    3/1 1000 м средняя 
[Cu hum|Ac trans]
+4.1 -2.9 60 +3  1019.6  -0.8  764  304           
03 17.10.17 170 (Ю) 3-5{05}  20000 м    10/5 600 м кучево-дожд., верхняя 
[Cb cap|Ci fib]
+6.4 -3.4 49 +5  1017.8  -1.7  763  301           
06 17.10.17 330 (СЗ) 3-6{09}  20000 м  в посл. час ливневой дождь  10/8 500 м кучево-дожд., средняя, верхняя 
[Cb cap|Ac trans|Ci ing]
+3.9 -3.1 60 +3  1017.3  -0.5  762  303           
09 17.10.17 290 (З) 2-3{06}  20000 м  в посл. час ливневой снег  10/6 600 м кучево-дожд., средняя, верхняя 
[Cb cap|Ac As|Ci ing]
+2 -2.2 74 +1  1018.5  1.3  763  306    +6.8  0.0     
12 17.10.17 010 (С) 3-6{06}  20000 м  {ливн. осадки}  10/6 600 м кучево-дожд., верхняя 
[Cb cap|Ci ing]
+1.7 -8.6 46 1020.1  1.6  764  307           
15 17.10.17 340 (С) 3-4{08}  20000 м    ясно 
-1 -10.1 50 -3  1020.9  0.8  765  310           
18 17.10.17 020 (С) 2-3{04}  20000 м    ясно 
-3.6 -9 66 -5  1022.1  1.1  766  314           
21 17.10.17 320 (СЗ) 2-3{06}  20000 м    1/1 600 м кучево-дожд. 
[Cb cap]
-5.6 -9.1 76 -7  1023.2  1.1  767  316  -6.2        замёрзшая 
00 18.10.17 350 (С) 3-5{05}  20000 м    3/3 1000 м 
[Cu med, cong]
+3.1 -8 44 +2  1023.6  0.4  767  306           
03 18.10.17 350 (С) 4-7{08}  20000 м  осадки на расстоянии  6/6 600 м кучево-дожд. 
[Cb cap]
+3.5 -9 39 +2  1023  -0.5  766  306           
06 18.10.17 330 (СЗ) 5-8{08}  20000 м    5/5 600 м кучево-дожд. 
[Cb cap]
+4.6 -9.8 34 +2  1023.3  0.3  767  305           
09 18.10.17 310 (СЗ) 2-3{08}  20000 м    ясно 
-1.9 -8.2 62 -3  1025.1  1.8  768  312    +5       
12 18.10.17 310 (СЗ) 2-3{04}  20000 м    ясно 
-3.4 -7.8 72 -5  1025.8  0.6  768  314           
15 18.10.17 320 (СЗ) 2-4{04}  20000 м    ясно 
-4 -8 74 -5  1025.8  768  315           
18 18.10.17 350 (С) 2-3{04}  20000 м    ясно 
-4.7 -8 78 -6  1025.8  768  316           
21 18.10.17 020 (С) 1-1{03}  20000 м    1/0 средняя 
[Ac lent]
-9.2 -10.5 90 -9  1025.9  0.1  769  322  -9.2        замёрзшая 
00 19.10.17 140 (ЮВ) 1-1{03}  20000 м    9/3 600 м кучево-дожд., средняя, верхняя 
[Cb cap|Ac lent|Ci ing]
+1.3 -3.9 68 +2  1025.7  0.1  768  309  -9.3         
03 19.10.17 240 (ЮЗ) 4-6{08}  20000 м    10/4 600 м кучево-дожд., средняя, верхняя 
[Cb cap|Ac lent|Ci ing]
+6.5 -7.2 37 +5  1024.1  -1.6  767  303           
06 19.10.17 270 (З) 5-7{10}  20000 м  осадки на расстоянии  10/4 600 м кучево-дожд., средняя, верхняя 
[Cb cap|Ac lent|Ci ing]
+5.9 -6.1 42 +4  1023.4  -0.7  767  303           
09 19.10.17 300 (СЗ) 2-2{07}  20000 м    10/3 600 м кучево-дожд., средняя, верхняя 
[Cb cap|Ac lent|Ci ing]
+2.1 -4.1 63 +1  1023.7  0.3  767  307    +7.8       
12 19.10.17 340 (С) 1-2{03}  20000 м    9/0 средняя 
[Ac trans]
-0.1 -3.5 78 +1  1023.8  767  310           
15 19.10.17 350 (С) 2-3{03}  20000 м    ясно 
-2.5 -4.7 85 -4  1024.2  0.4  767  313           
18 19.10.17 320 (СЗ) 1-1{04}  20000 м    10/3 600 м кучево-дожд., средняя, верхняя 
[Cb cap|Ac As|Ci fib]
-1.6 -4.3 82 -1  1024.9  0.7  768  312           
21 19.10.17 340 (С) 3-3{04}  20000 м    1/0 средняя 
[Ac trans]
-3.2 -5 87 -5  1025.5  0.6  768  314  -3.3        влажная 
00 20.10.17 010 (С) 3-4{05}  20000 м    10/8 1050 м средняя, верхняя 
[Sc|Ac trans|Ci ing]
+2.3 -3.1 67 +1  1026  0.5  769  308  -3.4         
Время (UTC), дата Ветер
(°,м/с) 
Видим.   Явления Облачность Т
(°С)
Тd
(°С)
f(%) Тe
(°С)
Pmin
(гПа)
dP
(гПа)
Po
(мм)
O2
(г/м3)
Тmin Tmax R s Состояние
почвы

Для получения пояснительной информации подведите курсор к названию столбца.

ПОГОДА в Поронайске - архив

Всё, что Вы хотите узнать о погоде в Поронайске - удобно и подробно!

Выберите нужную дату (начиная с 1 января 2015* года) и нажмите кнопку "Найти".
Будут отображены архивные сводки погоды по пункту Поронайск, начиная с указанной даты.


Отображать данные в формате CSV (для использования в таблицах Excel)


Внимание! Наш архив погоды предназначен исключительно для личного некоммерческого использования в познавательных целях. Если Вам необходимы официальные справки о состоянии погоды (для производственных, юридических, коммерческих и т.п. целей), обращайтесь в органы Росгидромета.

*Примечание: данная дата относится к архиву по метеостанциям СССР (Россия, СНГ, Балтия).
Архив по метеостанциям Зарубежной Европы и Азии (кроме Китая) хранится 10 дней, по другим регионам земного шара (Китай, Африка, Америка, Австралия, Океания) - 1 день.

Поронайск - район местоположения метеостанции


Название, широта, долгота, высота метеостанции:
Поронайск 49.2°ш. 143.1°д. 8 м над ур. моря [Российская Федерация]

Дополнительная информация

В oтличие oт бoльшинства пoгoдных сайтoв мы публикуем пoдрoбную метеoинфoрмацию в детальнoм прoфессиoнальнoм фoрмате.

Характеристики температуры и влажнoсти вoздуха измеряются на высoте 2 м в тени вдали oт зданий и деревьев.
Скoрoсть ветра измеряется на высoте 10 м (на урoвне рoста челoвека скoрoсть ветра ниже в 1.5-2 раза). Если метеoстанция нахoдится в гoрoде или в лесу, тo скoрoсть ветра занижена на 2-4 м/с пo сравнению с oткрытым местoм. Скoрoсть ветра над акватoриями крупных рек и oзёр, а также на вершинах хoлмoв на 2-5 м/с выше, чем в oбычных услoвиях.
Атмoсфернoе давление в разных тoчках местнoсти мoжет значительнo oтличаться oт давления на метеoстанции, в зависимoсти oт услoвий рельефа (при пoдъёме на 10 м давление пoнижается примернo на 1 мм рт.ст.).